LEMUR-2-ROMACOSTE

Last updated on Wed Feb 14 2018 16:20:55 GMT+0000 (Coordinated Universal Time)

1 43048U 17071M 18044.95262953 .00003319 00000-0 96890-4 0 9995 2 43048 51.6394 281.4313 0003225 193.0549 167.0352 15.38271291 10648
UTC large
Height (km)
Speed (km/s)
/
Latitude / Longitude
Inclination (degrees)
Orbital Period (minutes)
Azimuth
Elevation
Range (km)
Doppler Factor

Next 0 passes for location: London (51.5072 / 0.1276)

Sorry there are no passes over London.